User: anonymous   Login
Location: Curupao
(10.4996°N, 66.6442°W)
Time: 13:22:23
(UTC+00:00)
Language:

Cosmos 2341 Rocket - Orbit

View from above orbital plane
View from above orbital plane
View from above satellite
View from above satellite

Ground track
Ground track

The orbit data is extracted from the following two-line orbital elements,

1 24773U 97017B   24206.20785304  .00000102  00000-0  92536-4 0  9992
2 24773  82.9190 250.5960 0022957 287.5627 134.7994 13.73837661367034
Epoch (UTC): 24 July 2024 04:59:18
Eccentricity: 0.0022957
inclination: 82.9190°
perigee height: 969 km
apogee height: 1003 km
right ascension of ascending node: 250.5960°
argument of perigee: 287.5627°
revolutions per day: 13.73837661
mean anomaly at epoch: 134.7994°
orbit number at epoch: 36703

The dashed part of the orbit path shows where the satellite is in the earth's shadow,  

DLR